www.pogodaiklimat.ru

Погода и климат >> Архив погоды >> Ирак >> Khanaqin


ПОГОДА в Khanaqin

  • Прогноз погоды в Khanaqin
  • Монитор погоды в Khanaqin
  • Климат города

АРХИВ ПОГОДЫ в Khanaqin

Время (UTC), дата Ветер
(напр.,м/с)
 
Видим.   Явления Облачность Т
(С)
Тd
(С)
f
(%)
Тe
(С)
Тes
(С)
Комфортность P
(гПа)
Po
(гПа)
Тmin
(С)
Tmax
(С)
R
(мм)
R24
(мм)
S
(см)
12 18.02 ЮЗ 4 10 км в посл. час ливневой дождь 9/9 750 м
[Cu Sc]
+14.5 +9.8 73 +13 +14 1008.4 1008.0
15 18.02 В 2 10 км 6/0
[Ac trans Ci sp]
+13.5 +9.1 75 +13 +13 1009.4 1009.0
18 18.02 ЮВ 5 10 км в посл. час ливневой дождь 9/4 750 м
[Cu med, cong As trans]
+13.5 +9.4 76 +12 +12 1009.1 1009.0 +17.0 18
21 18.02 ЮВ 5 10 км 6/0
[Ac trans Ci sp]
+13.7 +9.5 76 +12 +12 1009.1 1009.0
06 19.02 В 2 7000 м слабый ливневой дождь 10/10 750 м
[Cb cap]
+10.4 +9.2 92 +9 +9 1012.6 1013.0 +10.0 19
09 19.02 штиль 0 10 км в посл. час ливневой дождь 9/9 750 м
[Cu Sc]
+12.2 +9.7 85 +12 +13 1014.4 1014.0
12 19.02 н/о +13.6 +10.4 81 -26 -25 1013.3 1013.7
15 19.02 ЮВ 2 10 км 6/0
[Ac trans Ci sp]
+13.5 +9.1 75 +13 +13 1013.5 1014.0
18 19.02 штиль 0 10 км ясно +11.0 +10.0 94 +10 +10 1016.8 1017.0 +16.0 3
21 19.02 штиль 0 10 км ясно +8.5 +9.5 100 +7 +7 1018.3 1018.0
06 20.02 штиль 0 10 км ясно +11.3 +8.8 85 +11 +18 1019.1 1019.0 +7.0
09 20.02 Ю 1 10 км 3/0
[Ci fib]
+17.0 +11.0 68 +18 +30 опасность
простуды
1018.4 1018.0
12 20.02 З 2 10 км 3/0
[]
+19.5 +12.4 64 +21 +26 комфорт 1016.0 1016.0
15 20.02 штиль 0 10 км ясно +15.7 +10.4 71 +16 +16 1016.5 1017.0
21 20.02 штиль 0 10 км 3/0
[Ci fib]
+12.0 +11.5 97 +11 +11 1016.7 1017.0
06 21.02 штиль 0 10 км 4/0
[Ci sp]
+13.6 +10.6 82 +13 +20 1015.3 1015.0 +10.5
09 21.02 штиль 0 10 км 9/9 750 м
[Cu Sc]
+16.0 +12.7 81 +16 +17 1016.2 1016.0
12 21.02 З 2 10 км 6/0
[Ac trans Ci sp]
+18.0 +13.6 75 +19 +22 1013.7 1014.0
15 21.02 штиль 0 10 км 5/0
[Ci sp]
+16.8 +11.7 72 +17 +17 1013.9 1014.0
18 21.02 штиль 0 10 км 9/9 750 м
[Cu Sc]
+15.5 +14.7 95 +15 +15 1013.0 1013.0 +19.5
21 21.02 штиль 0 10 км в посл. час ливневой дождь 9/9 750 м
[Cb cap]
+14.5 +12.4 87 +14 +14 1013.4 1013.0
03 22.02 В 2 10 км 6/0
[Ac cuf Ci ing]
+14.0 +12.3 89 +13 +13 1010.7 1011.0
06 22.02 штиль 0 10 км 1/0
[Ci fib]
+16.5 +12.8 79 +16 +23 1011.3 1011.0 +13.5 0.3
09 22.02 ЮВ 1 10 км 6/0
[Ac trans Ci fib]
+20.5 +13.2 63 +24 +34 комфорт 1010.6 1011.0
12 22.02 З 2 10 км 6/0
[Ac trans Ci sp]
+20.6 +12.4 59 +23 +27 комфорт 1010.1 1010.0
18 22.02 штиль 0 10 км 3/0
[Ci fib]
+16.2 +13.4 83 +16 +16 1011.2 1011.0 +22.5
21 22.02 штиль 0 10 км 1/0
[Ci fib]
+14.6 +11.5 82 +14 +14 1011.5 1012.0
06 23.02 штиль 0 10 км ясно +14.8 +11.1 78 +15 +22 1012.3 1012.0 +11.5
09 23.02 ЮЗ 1 10 км ясно +18.3 +12.0 67 +20 +33 опасность
простуды
1012.0 1012.0
12 23.02 ЮЗ 2 10 км 9/4 750 м
[Cu med, cong As trans]
+18.0 +14.4 79 +19 +20 1010.9 1011.0
15 23.02 ЮВ 1 10 км в посл. час дождь 9/4 750 м
[Cu med, cong As trans]
+16.5 +13.3 81 +17 +17 1011.7 1012.0
21 23.02 штиль 0 7000 м слабый дождь 10/10 750 м
[Cu Sc]
+12.5 -1 -1 1011.8 1012.0
03 24.02 В 1 10 км 10/10 750 м
[Cu Sc]
+12.5 +10.6 88 +12 +12 1010.2 1010.0
06 24.02 штиль 0 7000 м слабый дождь 10/10 750 м
[Cu Sc]
+12.8 +11.6 92 +12 +12 1010.5 1011.0 +12.0 5
09 24.02 штиль 0 10 км слабый дождь 9/9 750 м
[Cu Sc]
+14.3 +11.0 81 +14 +16 1010.7 1011.0
12 24.02 ЮЗ 2 10 км в посл. час ливневой дождь 9/9 600 м
[Cb cap]
+14.4 +12.6 89 +14 +14 1008.8 1009.0
18 24.02 штиль 0 10 км ясно +11.6 +11.0 96 +11 +11 1010.1 1010.0 +16.5 4
21 24.02 штиль 0 10 км ясно +9.9 +8.3 90 +9 +9 1010.4 1010.0

 

Местоположение метеостанции Khanaqin (Ирак): широта 34.30 долгота 45.43 высота над уровнем моря 202 м.

В архиве по умолчанию представлена погода в Khanaqin за последнюю неделю. Архивные данные за месяц целиком и за предыдущие месяцы, начиная с января 2011 года, Вы можете получить, выбрав интересующий диапазон дат из раскрывающегося списка и нажав кнопку "Ввод!".

Внимание! Время в таблицах - всемирное. Для получения местного времени необходимо прибавить поправку, которая в Khanaqin равна 3 ч.

Смотрите также архив погоды в соседних городах и на ближайших метеорологических станциях:

Погода в Tuz (Ирак) (96 км)
Погода в Al-Khalis (Ирак) (98 км)
Погода в Ayn Al-Tamar (Ирак) (106 км)
Погода в Halabcha (Ирак) (111 км)
Погода в Ilam (Иран) (119 км)
Погода в Sulaimaniya (Ирак) (139 км)
Погода в Badrah (Ирак) (142 км)
Погода в Chamchamal (Ирак) (146 км)
Погода в Kermanshah (Иран) (155 км)
Погода в Azizyah (Ирак) (157 км)

Пояснения к столбцам:

Ветер - указаны скорость ветра в м/с - средняя за 10 мин, порывы в срок и между сроками (в фигурных скобках) и направление, откуда дует ветер: С - северный, СВ - северо-восточный, В - восточный, ЮВ - юго-восточный, Ю - южный, ЮЗ - юго-западный, З - западный, СЗ - северо-западный.
Видимость - горизонтальная дальность видимости в метрах или километрах. При видимости от 1 до 10 км при отсутствии осадков обычно наблюдается дымка, при ухудшении видимости до 1 км и менее - туман. В сухую погоду видимость может ухудшаться дымом, пылью или мглою.
Явления - указаны атмосферные явления, наблюдавшиеся в срок или в последний час перед сроком; фигурными скобками обозначены явления, наблюдавшиеся между сроками (за 1-3 часа до срока); квадратными скобками обозначены град или гололедные отложения с указанием их диаметра в мм.
Облачность - указаны через наклонную черту общая и нижняя облачность в баллах и высота нижней границы облаков в метрах; квадратными скобками обозначены формы облаков: Ci - перистые, Cs - перисто-слоистые, Cc - перисто-кучевые, Ac - высококучевые, As - высокослоистые, Sc - слоисто-кучевые, Ns - слоисто-дождевые, Cu - кучевые, Cb - кучево-дождевые. Подробнее классификацию облаков см. в Атласе облаков (PDF).
T - Температура воздуха - температура, измеренная на высоте 2 м над землей.
Td - Температура точки росы - температура, при понижении до которой содержащийся в воздухе водяной пар достигнет насыщения.
f - Относительная влажность воздуха - влажноcть воздуха, измеренная на высоте 2 м над землей.
Te - Эффективная температура - температура, которую ощущает одетый по сезону человек в тени. Характеристика душности погоды. При расчете учитывается влияние влажности воздуха и скорости ветра на теплоощущения человека.
Tes - Эффективная температура на солнце - температура, которую ощущает человек, с поправкой на солнечный нагрев. Характеристика знойности погоды. Зависит от высоты солнца над горизонтом, облачности и скорости ветра. Ночью, в пасмурную погоду, а также при ветре 12 м/с и более поправка равна нулю.
P - Атмосферное давление - приведенное к уровню моря атмосферное давление.
Po - Атмосферное давление - измеренное на уровне метеостанции атмосферное давление.
Tmin - Минимальная температура - минимум температуры воздуха на высоте 2 м над землей.
Tmax - Максимальная температура - максимум температуры воздуха на высоте 2 м над землей.
R - Количество осадков - Количество выпавших осадков за период времени, мм. При наведении курсора мыши на число - период времени, за который выпало указанное количество осадков.
R24 - Количество осадков - Количество выпавших осадков за 24 часа, мм.
S - Снежный покров - Высота снежного покрова, см. При наведении курсора мыши на число - состояние снежного покрова и степень покрытия местности в баллах.